Location: Eschentzwiller
(47.7125°N, 7.3981°E)
Time: 01:15:53
(UTC+00:00)

Cosmos 1346 Rocket - Pass Details

Date: 27 October 2020
Orbit: 535 x 543 km, 81.2° (Epoch: 26 November)

Event Time Altitude Azimuth Distance (km) Brightness Sun altitude
Rises 17:43:51 0° 353° (N) 2,716 6.4 -14.6°
Reaches altitude 10° 17:46:04 10° 359° (N) 1,819 5.4 -15.0°
Maximum altitude 17:49:58 49° 75° (ENE) 706 2.9 -15.6°
Drops below altitude 10° 17:53:50 10° 151° (SSE) 1,806 5.2 -16.3°
Enters shadow 17:54:16 - 153° (SSE) 1,978 5.4 -16.4°
